Location: Balaclava NSW 2575, Australia
(34.4510°S, 150.4953°E)
Time: 19:36:31
(UTC+10:00)

Altair - Visible Passes

Search period start: 15 June 2021 00:00
Search period end: 25 June 2021 00:00
Orbit: 1501 x 1683 km, 47.2° (Epoch: 14 June)

Date Brightness Start Highest point End Pass type
(mag) Time Alt. Az. Time Alt. Az. Time Alt. Az.
15 Jun 8.7 02:59:42 30° SE 02:59:42 30° SE 03:03:54 10° SE visible
15 Jun 8.1 04:57:44 32° SW 05:00:38 38° S 05:09:13 10° ESE visible
16 Jun 9.1 02:35:58 22° SE 02:35:58 22° SE 02:38:44 10° SE visible
16 Jun 8.0 04:34:00 38° SSW 04:35:18 39° S 04:43:57 10° ESE visible
16 Jun 8.1 06:33:03 10° SW 06:42:03 45° SSE 06:50:47 10° E visible
17 Jun 9.5 02:12:13 15° SE 02:12:13 15° SE 02:13:35 10° SE visible
17 Jun 8.1 04:10:14 40° S 04:10:14 40° S 04:18:42 10° ESE visible
17 Jun 8.1 06:08:15 12° SW 06:16:45 43° SSE 06:25:27 10° E visible
18 Jun 8.3 03:46:27 38° SSE 03:46:27 38° SSE 03:53:27 10° ESE visible
18 Jun 8.1 05:44:28 17° SW 05:51:27 42° SSE 06:00:07 10° E visible
19 Jun 8.5 03:22:41 33° SSE 03:22:41 33° SSE 03:28:13 10° SE visible
19 Jun 8.2 05:20:41 23° SW 05:26:08 41° SSE 05:34:46 10° E visible
20 Jun 8.9 02:58:53 27° SE 02:58:53 27° SE 03:03:00 10° SE visible
20 Jun 8.2 04:56:54 29° SW 05:00:48 40° S 05:09:26 10° ESE visible
21 Jun 9.2 02:35:06 20° SE 02:35:06 20° SE 02:37:46 10° SE visible
21 Jun 8.2 04:33:07 35° SSW 04:35:29 39° S 04:44:06 10° ESE visible
21 Jun 7.7 06:32:03 10° SW 06:41:34 71° SSE 06:50:45 10° ENE visible
22 Jun 9.5 02:11:18 15° SE 02:11:18 15° SE 02:12:34 10° SE visible
22 Jun 8.1 04:09:19 38° S 04:10:08 39° S 04:18:46 10° ESE visible
22 Jun 7.7 06:07:20 12° SW 06:16:21 67° SSE 06:25:31 10° ENE visible
23 Jun 8.3 03:45:32 38° SSE 03:45:32 38° SSE 03:53:26 10° ESE visible
23 Jun 7.7 05:43:34 18° SW 05:51:07 63° SSE 06:00:16 10° ENE visible
24 Jun 8.5 03:21:46 34° SSE 03:21:46 34° SSE 03:28:06 10° ESE visible
24 Jun 7.8 05:19:48 24° SW 05:25:53 60° SSE 05:35:01 10° ENE visible
